カタログに戻る

FLOCK 4G 29

運用中科学SSO
NORAD 62642·PAYLOAD·🇺🇸 United States

打ち上げ Jan 14, 2025 から Vandenberg Space Force Base

Loading…

次のパス (今後24時間)

TLE

最新Source: Space-Track

元期: Sep 13, 2026, 23:13 UTC

1 62642U 25009AK  26256.96776581  .00034851  00000-0  10894-2 0  9991
2 62642  97.3964 338.6839 0000867 321.0964  39.0216 15.33078724 92480

AllMySatでFLOCK 4G 29をリアルタイム追跡

Download on the App Store